Location: Austin
(30.3000°N, 97.7500°W)
Time: 04:19:35
(UTC-06:00)

H-2A ROCKET BODY - Pass Details

Date: 05 February 2026
Orbit: 228 x 10777 km, 28.6° (Epoch: 15 February)

Event Time Altitude Azimuth Distance (km) Brightness Sun altitude
Rises 06:12:29 0° 249° (WSW) 10,457 7.3 -14.8°
Reaches altitude 10° 06:23:14 10° 248° (WSW) 7,341 6.5 -12.5°
Maximum altitude 06:40:37 62° 173° (S) 1,401 3.4 -8.8°
Drops below altitude 10° 06:45:13 10° 91° (E) 2,125 5.9 -7.9°
Sets 06:46:39 0° 87° (E) 2,698 6.6 -7.6°
